This is the latest recevied weather packets stored in our database for station/object K5OLV. If no packets are shown the sender has not sent any weather packets the latest 10 day(s).
| Time | Temp. | Humidity | Pressure | Rain* | Wind** | Luminosity | Snow |
|---|---|---|---|---|---|---|---|
| 1777910973 | 19.44° C | 58% | 1014.7 hPa | 0 mm | - | 748 W/m² | - |
| 1777910671 | 19.44° C | 60% | 1014.7 hPa | 0 mm | - | 747 W/m² | - |
| 1777910367 | 19.44° C | 59% | 1014.7 hPa | 0 mm | - | 732 W/m² | - |
| 1777910064 | 19.44° C | 58% | 1014.8 hPa | 0 mm | - | 678 W/m² | - |
| 1777909761 | 18.89° C | 57% | 1014.8 hPa | 0 mm | - | 622 W/m² | - |
| 1777909458 | 18.89° C | 57% | 1014.9 hPa | 0 mm | - | 724 W/m² | - |
| 1777909156 | 18.89° C | 59% | 1014.7 hPa | 0 mm | - | 685 W/m² | - |
| 1777908854 | 18.89° C | 57% | 1014.7 hPa | 0 mm | - | 679 W/m² | - |
| 1777908550 | 18.33° C | 59% | 1014.8 hPa | 0 mm | - | 730 W/m² | - |
| 1777908247 | 18.89° C | 57% | 1014.7 hPa | 0 mm | - | 720 W/m² | - |
| 1777907944 | 18.33° C | 57% | 1014.8 hPa | 0 mm | - | 763 W/m² | - |
| 1777907639 | 18.33° C | 59% | 1014.7 hPa | 0 mm | - | 698 W/m² | - |
| 1777907335 | 17.78° C | 59% | 1014.8 hPa | 0 mm | - | 711 W/m² | - |
| 1777907031 | 17.78° C | 57% | 1014.9 hPa | 0 mm | - | 704 W/m² | - |
| 1777906729 | 17.78° C | 57% | 1014.9 hPa | 0 mm | - | 694 W/m² | - |
| 1777906425 | 17.78° C | 59% | 1015.1 hPa | 0 mm | - | 670 W/m² | - |
| 1777906122 | 17.22° C | 59% | 1014.9 hPa | 0 mm | - | 675 W/m² | - |
| 1777905818 | 17.22° C | 61% | 1015.2 hPa | 0 mm | - | 664 W/m² | - |
| 1777905516 | 17.22° C | 60% | 1015.2 hPa | 0 mm | - | 671 W/m² | - |
| 1777905212 | 17.22° C | 58% | 1015 hPa | 0 mm | - | 608 W/m² | - |
| 1777904910 | 17.22° C | 57% | 1015 hPa | 0 mm | - | 621 W/m² | - |
| 1777904607 | 17.22° C | 57% | 1015 hPa | 0 mm | - | 608 W/m² | - |
| 1777904304 | 16.67° C | 58% | 1015.1 hPa | 0 mm | - | 622 W/m² | - |
| 1777904001 | 16.11° C | 59% | 1015.2 hPa | 0 mm | - | 578 W/m² | - |
| 1777903698 | 16.11° C | 59% | 1015.2 hPa | 0 mm | - | 542 W/m² | - |
* Rain latest hour (hover to see other rain measurements)
** Current wind speed in m/s (hover to see current wind gust speed)